GFSNIL_sfc_temp_198.txt.gz
Temp
56 59 56 59 57 55 54 52 49 51 52 51 50 50 50 48 48 47 48 46 46 47
57 55 59 57 57 54 52 49 50 50 50 49 49 49 48 47 46 46 46 44 44 45
51 54 57 56 54 52 50 50 49 49 49 48 47 47 47 45 44 44 44 43 43 43
53 55 54 54 52 51 50 49 49 48 47 47 46 46 46 45 43 43 42 42 41 40
53 53 52 52 51 50 49 49 48 48 46 46 45 45 45 43 43 43 41 41 40 39
51 51 51 50 49 48 48 47 47 46 46 45 44 44 44 44 42 42 42 40 40 39
49 49 49 48 47 47 47 46 46 46 46 44 44 44 43 42 41 41 40 39 39 39
47 48 48 45 45 44 44 45 46 44 44 44 43 43 42 41 40 39 38 37 37 37
45 44 43 43 43 43 43 43 42 42 42 42 42 40 39 40 39 37 37 36 36 36
43 42 41 42 41 41 41 42 41 42 42 41 42 38 38 37 38 38 37 36 35 34
41 40 39 39 39 40 41 40 41 41 41 40 40 38 38 37 38 38 37 36 35 34
39 38 38 37 38 40 39 39 39 39 39 36 38 37 38 38 36 35 35 35 35 34
39 38 38 38 37 38 38 37 37 35 36 35 36 37 38 38 36 32 33 32 32 30
37 37 39 37 37 36 35 35 33 33 34 33 33 36 37 38 36 34 32 32 31 31

GFSNIL_sfc_temp_201.txt.gz
Temp
61 56 55 56 59 58 57 56 54 55 55 54 54 54 53 51 50 49 48 48 48 47
57 55 56 60 60 59 58 55 53 54 53 53 52 52 51 49 47 47 47 46 45 45
56 57 61 59 57 57 55 53 52 52 52 51 51 50 50 47 46 46 44 44 44 43
56 58 57 56 56 55 53 52 51 51 50 50 49 49 48 46 44 44 42 43 42 41
56 56 56 56 55 53 52 51 51 50 49 49 48 47 47 45 44 44 41 41 41 40
56 55 55 54 52 51 51 50 50 49 48 47 47 45 45 45 42 42 42 41 40 40
53 54 54 52 50 50 50 49 48 48 48 47 45 44 44 44 41 41 41 39 39 39
51 53 51 49 48 48 48 48 48 46 46 45 44 45 43 41 41 40 39 37 37 37
49 47 45 46 44 43 44 44 43 42 42 42 44 43 42 41 39 38 37 37 36 36
44 42 43 42 42 41 42 42 41 40 41 40 42 41 40 39 37 37 37 37 35 34
42 41 39 40 40 40 41 40 40 40 40 41 41 40 39 37 37 37 37 36 36 35
40 38 38 38 39 40 39 38 38 38 38 37 38 39 39 37 35 35 35 35 35 34
40 38 38 38 37 37 38 36 36 35 35 35 36 39 38 38 35 33 33 34 34 32
38 37 38 37 35 35 34 34 33 33 33 33 33 36 38 39 35 34 33 33 32 32

GFSNIL_sfc_temp_207.txt.gz
Temp
59 57 53 52 52 52 52 50 48 46 46 45 44 43 42 40 39 39 38 38 37 35
59 57 56 55 54 54 51 49 47 47 45 43 43 42 41 39 38 37 36 35 36 35
58 57 56 56 54 51 50 50 47 44 44 42 42 41 40 37 37 37 34 35 35 34
55 55 54 54 53 52 49 48 46 45 43 42 41 40 38 37 37 36 35 34 34 33
54 53 53 53 52 50 48 45 46 44 43 42 41 39 38 37 37 35 33 33 32 33
53 52 52 51 49 47 46 45 44 44 43 42 41 39 38 38 36 35 34 32 32 32
50 51 51 49 47 45 45 44 43 43 43 41 39 39 38 37 35 34 33 33 32 31
48 50 48 45 43 42 43 44 44 42 41 39 40 40 37 36 34 33 32 32 32 32
46 45 43 41 41 41 39 40 40 39 39 38 41 41 40 36 33 33 33 32 31 32
41 40 39 38 38 38 39 39 38 36 36 35 36 41 41 38 34 33 32 32 32 31
39 38 36 37 38 36 36 37 36 35 35 34 36 42 41 38 34 33 33 33 32 31
39 36 36 37 36 35 35 34 35 34 33 33 34 41 41 38 33 33 33 33 32 31
37 37 37 37 34 32 34 34 34 34 33 32 33 39 40 37 32 31 32 32 32 31
36 36 36 33 31 33 32 33 31 31 30 31 32 34 40 40 33 33 31 30 28 28

GFSNIL_sfc_temp_210.txt.gz
Temp
58 56 55 53 52 50 50 50 51 50 48 48 45 46 42 40 39 39 38 38 37 35
58 57 55 53 51 51 51 51 50 49 45 47 44 44 42 39 38 37 35 35 35 34
58 58 56 54 52 53 50 49 48 47 46 45 42 43 40 38 37 37 34 34 34 33
59 58 57 56 55 53 51 50 48 48 45 44 42 41 39 37 37 37 35 34 33 34
58 57 55 55 53 51 49 49 48 47 45 43 43 40 40 38 38 37 34 33 33 33
55 54 54 53 51 49 48 47 47 46 44 43 41 40 39 39 37 36 35 33 33 33
53 53 52 50 48 48 47 46 45 45 44 42 41 40 39 38 36 35 34 34 33 32
49 51 49 47 45 44 45 46 45 42 41 41 41 40 39 38 35 34 33 33 33 32
47 46 45 44 43 42 41 41 40 39 40 39 42 42 41 38 35 34 34 34 32 32
42 40 40 40 40 39 40 39 38 37 37 37 38 41 41 38 35 35 34 33 33 32
40 40 38 38 38 38 36 37 36 35 36 36 37 41 41 38 35 34 33 33 33 32
39 37 37 37 36 35 35 35 35 35 35 35 35 41 40 38 34 33 33 33 32 32
38 37 37 37 35 33 35 34 34 34 34 34 35 40 40 39 34 33 32 32 32 31
36 37 37 35 32 34 33 33 33 33 32 33 33 36 40 40 34 34 30 30 29 29